GW5072 Weather Reports


time (UTC)temp
F
wind
direction
speed
knots
gust
knots
rain 1hr
in
rain 24hr
in
rain mn
in
humidity
%
barometer
mb
20260503182007 79 53 0.0 3.5 0.00 0.00 0.00 44 1021.9
20260503181524 78 72 0.0 3.5 0.00 0.00 0.00 40 1022.1
20260503181004 79 32 1.7 3.5 0.00 0.00 0.00 39 1022.2
20260503180509 80 47 0.9 2.6 0.00 0.00 0.00 40 1022.2
20260503180024 80 155 0.0 2.6 0.00 0.00 0.00 43 1022.4
20260503175507 79 222 0.9 2.6 0.00 0.00 0.00 44 1022.5
20260503175013 79 78 0.9 2.6 0.00 0.00 0.00 42 1022.5
20260503174523 79 81 0.9 2.6 0.00 0.00 0.00 43 1022.7
20260503174004 80 47 1.7 2.6 0.00 0.00 0.00 40 1022.7
20260503173508 81 99 0.0 2.6 0.00 0.00 0.00 40 1022.9
20260503173020 81 267 0.0 2.6 0.00 0.00 0.00 41 1023.0
20260503172509 81 205 0.0 1.7 0.00 0.00 0.00 43 1023.0
20260503172013 81 294 0.0 3.5 0.00 0.00 0.00 44 1023.0
20260503171518 80 190 0.0 3.5 0.00 0.00 0.00 48 1023.1
20260503171010 79 203 0.0 1.7 0.00 0.00 0.00 45 1023.2
20260503170508 78 213 0.0 1.7 0.00 0.00 0.00 47 1023.2
20260503151003 69 203 0.0 2.6 0.00 0.00 0.00 66 1023.1
20260503150503 68 91 0.0 2.6 0.00 0.00 0.00 66 1023.0
20260503131003 54 324 0.0 0.0 0.00 0.01 0.00 97 1022.5
20260503130507 54 324 0.0 0.0 0.00 0.01 0.00 97 1022.4
20260503110510 51 325 0.0 0.0 0.00 0.01 0.00 95 1021.6
20260503090507 52 324 0.0 0.0 0.00 0.01 0.00 95 1021.0
20260503081543 54 324 0.0 0.0 0.00 0.01 0.00 95 1021.2
20260503081010 53 325 0.0 0.0 0.00 0.01 0.00 94 1021.3
20260503080507 53 325 0.0 0.0 0.00 0.01 0.00 95 1021.2
20260503072507 54 325 0.0 0.0 0.00 0.01 0.00 94 1021.3
20260503072011 54 325 0.0 0.0 0.00 0.01 0.00 94 1021.3
20260503071534 54 325 0.0 0.0 0.00 0.01 0.00 94 1021.3
20260503071009 54 325 0.0 0.0 0.00 0.01 0.00 94 1021.3
20260503070507 54 325 0.0 0.0 0.00 0.01 0.00 94 1021.4
20260503055003 55 325 0.0 0.0 0.00 0.01 0.00 93 1021.4
20260503054505 55 325 0.0 0.0 0.00 0.01 0.00 93 1021.5
20260503054004 55 325 0.0 0.0 0.00 0.01 0.00 93 1021.5
20260503053503 55 325 0.0 0.0 0.00 0.01 0.00 93 1021.5
20260503053027 55 325 0.0 0.0 0.00 0.01 0.00 93 1021.5
20260503052509 55 325 0.0 0.0 0.00 0.01 0.00 93 1021.3
20260503052006 56 325 0.0 0.0 0.00 0.01 0.00 93 1021.1
20260503051522 56 325 0.0 0.0 0.00 0.01 0.00 93 1021.1
20260503051005 56 325 0.0 0.0 0.00 0.01 0.00 93 1021.2
20260503050503 56 325 0.0 0.0 0.00 0.01 0.00 93 1021.2
20260503050020 56 325 0.0 0.0 0.00 0.01 0.00 92 1021.4
20260503045505 56 325 0.0 0.0 0.00 0.01 0.01 92 1021.3
20260503045012 56 325 0.0 0.0 0.00 0.01 0.01 92 1021.2
20260503044534 56 325 0.0 0.0 0.00 0.01 0.01 92 1021.1
20260503044004 56 325 0.0 0.0 0.00 0.01 0.01 91 1021.1
20260503043507 56 325 0.0 0.0 0.00 0.01 0.01 91 1021.1
20260503043016 57 325 0.0 0.0 0.00 0.01 0.01 91 1021.1
20260503042503 57 325 0.0 0.0 0.00 0.01 0.01 91 1021.0
20260503042009 57 325 0.0 0.0 0.00 0.01 0.01 91 1021.0
20260503041514 57 325 0.0 0.0 0.00 0.01 0.01 91 1021.0
20260503041007 57 325 0.0 0.0 0.00 0.01 0.01 92 1021.1
20260503040509 57 324 0.0 0.0 0.00 0.01 0.01 91 1021.0
20260503040010 57 324 0.0 0.0 0.00 0.01 0.01 91 1021.1
20260503035508 57 324 0.0 0.0 0.00 0.01 0.01 90 1021.1
20260503035007 57 324 0.0 0.0 0.00 0.01 0.01 90 1021.1
20260503034528 57 324 0.0 0.0 0.00 0.01 0.01 90 1021.0
20260503034004 57 324 0.0 0.0 0.00 0.01 0.01 90 1020.8
20260503033508 58 325 0.0 0.0 0.00 0.01 0.01 89 1020.7
20260503033023 58 324 0.0 0.0 0.00 0.01 0.01 89 1020.7
20260503032509 58 324 0.0 0.0 0.00 0.01 0.01 89 1020.7
20260503032006 58 325 0.0 0.0 0.00 0.01 0.01 89 1020.6
20260503031523 58 324 0.0 0.0 0.00 0.01 0.01 89 1020.5
20260503031004 58 325 0.0 0.0 0.00 0.01 0.01 88 1020.5
20260503030511 58 325 0.0 0.0 0.00 0.01 0.01 88 1020.6
20260503030019 59 324 0.0 0.0 0.00 0.01 0.01 87 1020.5
20260503025506 59 324 0.0 0.0 0.00 0.01 0.01 87 1020.4
20260503025008 59 325 0.0 0.0 0.00 0.01 0.01 87 1020.4
20260503024520 59 324 0.0 0.0 0.00 0.01 0.01 86 1020.6
20260503024003 59 324 0.0 0.0 0.00 0.01 0.01 86 1020.6
20260503023510 60 324 0.0 0.0 0.00 0.01 0.01 85 1020.6
20260503023019 60 324 0.0 0.0 0.00 0.01 0.01 85 1020.4
20260503022507 60 324 0.0 0.0 0.00 0.01 0.01 85 1020.3
20260503022015 60 325 0.0 0.0 0.00 0.01 0.01 84 1020.3
20260503021514 60 324 0.0 0.0 0.00 0.01 0.01 84 1020.2
20260503021008 61 324 0.0 0.0 0.00 0.01 0.01 83 1020.3
20260503020509 61 324 0.0 0.0 0.00 0.01 0.01 83 1020.3
20260503020010 61 324 0.0 0.0 0.00 0.01 0.01 83 1020.1
20260503015509 61 324 0.0 0.0 0.00 0.01 0.01 82 1020.0
20260503015005 62 324 0.0 0.0 0.00 0.01 0.01 80 1020.0
20260503014527 62 325 0.0 0.0 0.00 0.01 0.01 79 1020.0
20260503014008 63 324 0.0 0.0 0.00 0.01 0.01 78 1019.9
20260503013505 63 324 0.0 0.0 0.00 0.01 0.01 75 1019.9
20260503013034 64 324 0.0 0.0 0.00 0.01 0.01 74 1019.8
20260503012507 64 324 0.0 0.0 0.00 0.01 0.01 73 1019.8
20260503012014 65 324 0.0 0.0 0.00 0.01 0.01 73 1019.7
20260503011529 66 324 0.0 0.0 0.00 0.02 0.01 72 1019.5
20260503011004 66 324 0.0 0.0 0.00 0.02 0.01 72 1019.6
20260503010507 67 324 0.0 0.0 0.00 0.02 0.01 69 1019.6
20260503010023 68 324 0.0 0.0 0.00 0.02 0.01 68 1019.5
20260503005503 69 324 0.0 0.0 0.00 0.02 0.01 67 1019.4
20260503005008 69 324 0.0 0.0 0.00 0.02 0.01 68 1019.3
20260503004517 70 324 0.0 0.0 0.00 0.02 0.01 65 1019.3
20260503004011 70 324 0.0 0.9 0.00 0.03 0.01 62 1019.2
20260503003508 71 324 0.0 0.9 0.00 0.04 0.01 62 1019.1
20260503003018 71 356 0.0 0.9 0.00 0.05 0.01 60 1019.1
20260503002515 71 356 0.0 3.5 0.00 0.06 0.01 59 1019.1
20260503002008 72 306 0.0 3.5 0.00 0.07 0.01 56 1019.1
20260503001516 72 338 0.0 2.6 0.00 0.07 0.01 55 1019.1
20260503001017 72 321 0.0 4.3 0.00 0.08 0.01 55 1019.0
20260503000506 72 39 0.0 4.3 0.00 0.09 0.01 54 1018.9
20260503000036 72 33 0.0 2.6 0.00 0.09 0.01 57 1018.9
20260502235507 73 354 0.0 0.9 0.00 0.12 0.01 57 1018.9
20260502235006 73 115 0.0 0.9 0.00 0.13 0.01 56 1018.8
20260502234528 73 117 0.0 2.6 0.00 0.14 0.01 54 1018.8
20260502234011 73 92 0.0 2.6 0.00 0.16 0.01 55 1018.7
20260502233512 74 113 0.0 3.5 0.00 0.17 0.01 53 1018.7
20260502233024 74 148 0.0 3.5 0.00 0.17 0.01 53 1018.8
20260502232513 74 50 0.0 1.7 0.00 0.18 0.01 51 1018.8
20260502232008 74 295 0.0 2.6 0.00 0.18 0.01 53 1018.8
20260502231523 74 328 0.0 2.6 0.00 0.19 0.01 53 1018.7
20260502231008 75 314 0.9 2.6 0.00 0.20 0.01 51 1018.7
20260502230511 75 96 0.0 1.7 0.00 0.20 0.01 50 1018.7
20260502230024 75 39 0.0 1.7 0.00 0.21 0.01 51 1018.8
20260502225507 75 323 0.0 1.7 0.00 0.23 0.01 52 1018.8
20260502225006 75 125 0.9 1.7 0.00 0.27 0.01 50 1018.8
20260502224523 76 72 0.0 1.7 0.00 0.29 0.01 49 1018.8
20260502224010 76 60 0.0 1.7 0.00 0.30 0.01 50 1018.8
20260502223511 76 78 0.9 1.7 0.00 0.31 0.01 49 1018.8
20260502223020 76 75 0.0 0.9 0.00 0.31 0.01 53 1018.8
20260502222507 76 88 0.0 0.9 0.00 0.31 0.01 51 1018.8
20260502222006 76 67 0.0 3.5 0.00 0.31 0.01 52 1019.0
20260502221533 76 343 0.9 3.5 0.00 0.31 0.01 49 1018.9
20260502221006 76 88 0.0 1.7 0.00 0.31 0.01 51 1019.0
20260502220507 76 93 0.0 2.6 0.00 0.31 0.01 50 1018.9
20260502220026 76 51 0.9 4.3 0.00 0.31 0.01 51 1019.1
20260502215508 76 98 0.9 7.0 0.00 0.31 0.01 49 1019.0
20260502215008 77 324 1.7 7.0 0.00 0.31 0.01 48 1018.9
20260502214527 76 229 0.0 2.6 0.00 0.31 0.01 49 1018.9
20260502214007 76 77 0.0 2.6 0.00 0.33 0.01 50 1019.1
20260502213509 76 330 0.9 2.6 0.00 0.34 0.01 48 1019.1
20260502213027 77 214 0.0 1.7 0.00 0.36 0.01 49 1019.2
20260502212507 77 115 0.0 2.6 0.00 0.39 0.01 49 1019.1
20260502212010 76 10 0.9 2.6 0.00 0.41 0.01 48 1019.2
20260502211526 76 319 0.9 2.6 0.00 0.43 0.01 51 1019.2
20260502211008 76 95 0.0 1.7 0.00 0.45 0.01 49 1019.2
20260502210502 76 57 0.0 1.7 0.00 0.47 0.01 51 1019.3
20260502210024 76 61 0.0 1.7 0.00 0.47 0.01 49 1019.4
20260502205509 77 72 0.0 1.7 0.00 0.48 0.01 54 1019.4
20260502205007 77 302 0.0 4.3 0.00 0.48 0.01 50 1019.5
20260502204525 77 291 0.9 4.3 0.00 0.50 0.01 52 1019.5
20260502204006 77 320 0.9 3.5 0.00 0.50 0.01 50 1019.6
20260502203503 77 23 0.9 3.5 0.00 0.50 0.01 51 1019.6
20260502203021 76 296 0.9 4.3 0.00 0.50 0.01 50 1019.6
20260502202503 76 313 0.9 4.3 0.00 0.51 0.01 49 1019.7
20260502202011 76 291 0.0 4.3 0.00 0.51 0.01 54 1019.6
20260502201519 75 51 0.9 4.3 0.00 0.51 0.01 54 1019.7
20260502201003 75 323 0.0 4.3 0.00 0.52 0.01 51 1019.7
20260502200512 75 276 0.9 6.1 0.00 0.52 0.01 51 1019.8
20260502200014 75 319 2.6 6.1 0.00 0.54 0.01 48 1019.8
20260502195504 75 79 0.0 1.7 0.00 0.55 0.01 51 1019.9
20260502195004 75 248 0.0 1.7 0.00 0.56 0.01 51 1019.9
20260502194510 75 146 0.0 1.7 0.00 0.57 0.01 52 1019.9
20260502194007 75 39 0.9 6.1 0.00 0.58 0.01 51 1020.0
20260502193508 75 59 0.0 6.1 0.00 0.60 0.01 51 1020.1
20260502193009 75 326 0.9 5.2 0.00 0.61 0.01 50 1020.2
20260502192509 75 328 0.9 4.3 0.00 0.62 0.01 51 1020.2
20260502192007 76 316 1.7 4.3 0.00 0.63 0.01 47 1020.3
20260502191531 75 116 0.9 4.3 0.00 0.63 0.01 50 1020.4
20260502191012 75 141 0.9 4.3 0.00 0.63 0.01 55 1020.4
20260502190504 75 93 0.9 4.3 0.00 0.63 0.01 51 1020.5
20260502190028 75 287 0.9 4.3 0.00 0.63 0.01 54 1020.5
20260502185505 75 72 0.0 5.2 0.00 0.64 0.01 50 1020.5
20260502185002 75 161 0.9 5.2 0.00 0.64 0.01 51 1020.6
20260502184523 75 305 0.9 3.5 0.00 0.64 0.01 54 1020.8
20260502184004 74 302 0.0 3.5 0.00 0.64 0.01 55 1020.8
20260502183508 74 66 0.9 3.5 0.00 0.64 0.01 52 1020.8
20260502183021 74 116 0.9 3.5 0.00 0.64 0.01 57 1020.9
20260502182506 74 72 0.9 3.5 0.00 0.64 0.01 53 1020.9